This is the latest recevied weather packets stored in our database for station/object KD5UMO-1. If no packets are shown the sender has not sent any weather packets the latest 10 day(s).
| Time | Temp. | Humidity | Pressure | Rain* | Wind** | Luminosity | Snow |
|---|---|---|---|---|---|---|---|
| 1777822988 | 23.89° C | 45% | 1021.4 hPa | 0 mm | - | 693 W/m² | - |
| 1777822686 | 23.33° C | 46% | 1021.5 hPa | 0 mm | - | 682 W/m² | - |
| 1777822384 | 23.33° C | 46% | 1021.4 hPa | 0 mm | - | 669 W/m² | - |
| 1777822081 | 22.78° C | 48% | 1021.5 hPa | 0 mm | - | 655 W/m² | - |
| 1777821779 | 22.78° C | 47% | 1021.5 hPa | 0 mm | - | 639 W/m² | - |
| 1777821475 | 23.33° C | 49% | 1021.4 hPa | 0 mm | - | 624 W/m² | - |
| 1777821173 | 22.78° C | 48% | 1021.3 hPa | 0 mm | - | 608 W/m² | - |
| 1777820870 | 22.22° C | 48% | 1021.5 hPa | 0 mm | - | 591 W/m² | - |
| 1777820565 | 22.22° C | 48% | 1021.4 hPa | 0 mm | - | 575 W/m² | - |
| 1777820262 | 22.22° C | 49% | 1021.2 hPa | 0 mm | - | 558 W/m² | - |
| 1777819960 | 22.22° C | 49% | 1021.4 hPa | 0 mm | - | 539 W/m² | - |
| 1777819657 | 22.22° C | 49% | 1021.2 hPa | 0 mm | - | 520 W/m² | - |
| 1777819355 | 22.22° C | 50% | 1021.2 hPa | 0 mm | - | 502 W/m² | - |
| 1777819051 | 22.22° C | 48% | 1021.2 hPa | 0 mm | - | 485 W/m² | - |
| 1777818749 | 22.22° C | 51% | 1021.4 hPa | 0 mm | - | 467 W/m² | - |
| 1777818445 | 21.67° C | 50% | 1021.3 hPa | 0 mm | - | 448 W/m² | - |
| 1777818142 | 21.11° C | 51% | 1021.3 hPa | 0 mm | - | 429 W/m² | - |
| 1777817839 | 21.67° C | 50% | 1021.3 hPa | 0 mm | - | 407 W/m² | - |
| 1777817536 | 21.11° C | 51% | 1021.4 hPa | 0 mm | - | 386 W/m² | - |
| 1777817233 | 21.11° C | 52% | 1021.3 hPa | 0 mm | - | 369 W/m² | - |
| 1777816930 | 20.56° C | 53% | 1021.2 hPa | 0 mm | - | 354 W/m² | - |
| 1777816627 | 20° C | 54% | 1021.4 hPa | 0 mm | - | 340 W/m² | - |
| 1777816323 | 20° C | 54% | 1021.1 hPa | 0 mm | - | 324 W/m² | - |
| 1777816021 | 20° C | 55% | 1021.2 hPa | 0 mm | - | 307 W/m² | - |
| 1777815719 | 20° C | 55% | 1021.4 hPa | 0 mm | - | 290 W/m² | - |
* Rain latest hour (hover to see other rain measurements)
** Current wind speed in m/s (hover to see current wind gust speed)